Volver al catálogo

FENGYUN 1C DEB

LostPO
NORAD 36165·DEBRIS·🇨🇳 China

Lanzado May 10, 1999 desde Taiyuan Satellite Launch Center

Loading…

Próximos Pases (próximas 24 horas)

TLE

ObsoletoSource: Space-Track

Época: Jan 12, 2011, 16:04 UTC

1 36165U 99025DSN 11012.67006549  .00001336  00000-0  93657-3 0  9994
2 36165  98.0085 183.4237 0204325 328.0288  30.8547 13.90233081161115

Sigue FENGYUN 1C DEB en tiempo real con AllMySat

Download on the App Store